Weather in Bolshaya Chernigovka

Russia / Samara Oblast     52°05′42″N   50°52′02″E
temp.,
°C
wind,
m/s
gust,
m/s
humid.,
%
clouds,
%
prec.,
mm/h
press.,
hPa
HPBL,
m
29 june, wed
wed2901:00+10n49780 0.0 1016205
04:00+9n36790 0.0 1017120
07:00+12n47690 0.0 1017393
10:00+14n785334 0.0 10171482
13:00+14n775682 0.0 10171510
16:00+14n6758100 0.1 10171437
19:00+13nne4765100 0.0 10171331
22:00+13nne3663100 0.0 1017476
30 june, thu
thu3001:00+13wsw016196 0.0 101612
04:00+12w3567100 0.0 1016144
07:00+13w367463 0.0 1015274
10:00+18nw46498 0.1 10141827
13:00+21nw453916 0.0 10132326
16:00+21nw563781 0.0 10122568
19:00+18nne115884 0.0 101114
22:00+17nw3655100 0.0 1011125
1 july, fri
fri101:00+14w336249 0.0 101048
04:00+14w3662100 0.1 1009177
07:00+12n5683100 0.8 1009385
10:00+13n4576100 1.1 1009811
13:00+15nnw335797 0.6 10091419
16:00+14n566439 1.0 1009889
19:00+14n556651 0.3 1009954
22:00+10n358246 0.3 1010118
2 july, sat
sat201:00+8n34902 0.0 100962
04:00+7n349399 0.0 100983
07:00+10n4694100 0.9 1008241
10:00+12n3588100 2.6 1007552
13:00+14ene6984100 6.6 1006816
16:00+14ene5885100 10.6 1006530
19:00+12nne41193100 1.9 1006419
22:00+12nnw3797100 2.9 1007207
3 july, sun
sun301:00+11nnw479584 0.1 1006121
04:00+11nnw512955 0.1 1006253
07:00+14n612853 0.0 1007354
10:00+19n710614 0.0 1007935
13:00+22nnw77495 0.0 10081869
16:00+23nnw674451 0.0 10082259
19:00+20nw7106673 0.1 1008551
22:00+16nw4982100 0.1 1009203